Flag for Mongolia Weather past 2 weeks in Ulaanbaatar, Mongolia

Now
34 °F

Scattered clouds.


Feels Like: 24 °F
Forecast: 13 / 41 °F
Wind: 15 mph from North

Location: Ulan-Bator

Current Time: Oct 25, 2014 at 11:01:56 AM

Latest Report: Oct 25, 2014 at 10:30 AM


Visibility: N/A

Pressure: 30.09 "Hg

Humidity: 65%

Dew point: 23 °F

Location of UlaanbaatarLocation

Historic Weather in Ulaanbaatar — Graph

°F

Ulaanbaatar temperature yesterday

Maximum temperature yesterday: 50 °F (at 3:30 PM)
Minimum temperature yesterday: 19 °F (at 6:00 AM)
Average temperature yesterday: 35 °F

Past Weeks' High & Low Weather Summary

 TemperatureHumidityPressure
High61 °F (Oct 18, 4:30 PM)93% (Oct 10, 12:30 PM)30.54 "Hg (Oct 10, 12:30 PM)
Low7 °F (Oct 12, 6:00 AM)12% (Oct 12, 5:30 PM)29.62 "Hg (Oct 18, 5:30 PM)
Average32 °F55%29.99 "Hg
* Reported Oct 10 10:00 AM — Oct 25 10:00 AM, Ulaanbaatar, Weather by CustomWeather, © 2014

Note: Actual official high and low records may vary slightly from our data, if they occured in-between our weather recording intervals... More about our weather records

Advertising

Ulaanbaatar weather history for previous 24 hours

 ConditionsComfort  
Time TempWeatherWind HumidityBarometerVisibility
10:00 AM
Oct 25
34 °FScattered clouds.15 mph65%30.07 "HgN/A
9:30 AM36 °FScattered clouds.8 mph60%30.04 "HgN/A
9:00 AM34 °FScattered clouds.6 mph60%30.01 "HgN/A
8:30 AM30 °FScattered clouds.No wind69%29.98 "HgN/A
8:00 AM28 °FPassing clouds.1 mph74%29.95 "HgN/A
7:30 AM25 °FPassing clouds.1 mph80%29.95 "HgN/A
7:00 AM25 °FPassing clouds.1 mph74%29.92 "HgN/A
6:30 AM21 °FClear.6 mph80%29.92 "Hg10 mi
6:00 AM23 °FClear.6 mph80%29.92 "Hg10 mi
5:30 AM19 °FClear.6 mph79%29.89 "Hg10 mi
5:00 AM25 °FClear.6 mph74%29.89 "Hg10 mi
4:30 AM21 °FClear.6 mph80%29.86 "Hg10 mi
4:00 AM21 °FClear.6 mph80%29.86 "Hg10 mi
3:00 AM21 °FClear.3 mph80%29.86 "Hg10 mi
2:00 AM23 °FClear.3 mph80%29.86 "Hg10 mi
1:00 AM25 °FClear.3 mph74%29.83 "Hg10 mi
12:30 AM27 °FClear.1 mph69%29.83 "Hg10 mi
12:00 AM27 °FClear.1 mph69%29.83 "Hg10 mi
11:30 PM
Oct 24
27 °FClear.3 mph69%29.83 "Hg10 mi
11:00 PM27 °FClear.1 mph64%29.83 "Hg10 mi
10:30 PM28 °FPassing clouds.1 mph69%29.80 "HgN/A
10:00 PM34 °FPassing clouds.No wind56%29.80 "HgN/A
9:30 PM34 °FPassing clouds.No wind56%29.80 "HgN/A
9:00 PM34 °FPassing clouds.3 mph51%29.77 "HgN/A
8:30 PM34 °FPassing clouds.8 mph56%29.77 "HgN/A
8:00 PM41 °FPassing clouds.1 mph45%29.77 "HgN/A
7:30 PM41 °FPassing clouds.3 mph49%29.77 "HgN/A
7:00 PM46 °FPassing clouds.3 mph34%29.74 "HgN/A
6:30 PM45 °FScattered clouds.3 mph37%29.74 "HgN/A
6:00 PM45 °FPartly sunny.6 mph39%29.74 "HgN/A
5:30 PM46 °FPartly sunny.3 mph34%29.77 "HgN/A
5:00 PM48 °FScattered clouds.6 mph34%29.77 "HgN/A
4:30 PM48 °FScattered clouds.6 mph32%29.77 "HgN/A
4:00 PM48 °FScattered clouds.6 mph32%29.74 "HgN/A
3:30 PM50 °FScattered clouds.3 mph30%29.74 "HgN/A
3:00 PM48 °FScattered clouds.6 mph32%29.74 "HgN/A
2:30 PM48 °FScattered clouds.8 mph34%29.77 "HgN/A
2:00 PM48 °FScattered clouds.6 mph32%29.77 "HgN/A
1:30 PM48 °FPartly sunny.3 mph34%29.77 "HgN/A
1:00 PM45 °FPartly sunny.1 mph39%29.77 "HgN/A
12:30 PM45 °FPartly sunny.1 mph46%29.80 "HgN/A
12:00 PM43 °FPartly sunny.1 mph49%29.80 "HgN/A
11:30 AM41 °FSunny.1 mph53%29.80 "Hg10 mi
11:00 AM37 °FSunny.3 mph60%29.80 "Hg10 mi
Weather by CustomWeather, © 2014

See weather overviewHow to use our weather pages